Tianqi Xingzuo 1-30

operational
NORAD ID: 62365 Int'l Des: 2024-245 Owner: GUOG Country: CN Constellation: tianqi
LEOCIRCULAR

About Tianqi Xingzuo 1-30

Description loading...

Live Position

Loading 3D Globe...

Upcoming Passes

Altitude History

Altitude vs Time

uPlot chart will show altitude changes over time

Two-Line Element Set

1 62365U 24245A 25315.16740738 .00000336 00000-0 31858-3 0 9991
2 62365 44.9828 212.0609 0007914 56.8726 303.2865 13.99107205 45827
Epoch: Nov 11, 2025 • Age: 16 hours

Current Status

Altitude 896.3 km
Velocity 7.41 km/s
Sub-Earth Point 27.70°N, 4.82°E
Launch Date Dec 19, 2024
Age 0.8 years
Type other

Technical Details

Classification Payload
Mass 40.00 kg
Dry Mass 40.00 kg
Total Mass 40.00 kg
Length 0.50 m
Diameter 0.30 m
Span 0.50 m
Shape Box
Manufacturer ASES
Bus Type StarLightB
Phase Status In Orbit
Owner/State GUOG/CN

Large Constellations

Loading constellations...